Terminal Aerodrome Forecast
Issued by NWS

Home | Current Version | Previous Version | Text Only | Print | Product List | Glossary On
Versions: 1 2 3 4 5 6 7 8 9 10 11 12 13 14 15 16 17 18 19 20 21 22 23 24 25 26 27 28 29 30 31 32 33 34 35 36 37 38 39 40 41 42 43 44 45 46 47 48 49 50
000
FTUS46 KPQR 022320
TAFONP
TAF
KONP 022320Z 0300/0324 27004KT 3SM BR OVC002
      TEMPO 0303/0307 1SM BR OVC002
     FM030900 36003KT 1SM BR OVC002
     FM031800 34008KT 5SM BR OVC007
     FM032000 33012G22KT P6SM OVC015=

USA.gov is the U.S. government's official web portal to all federal, state and local government web resources and services.